カタログに戻る

STARLINK-35441

運用中通信VLEO
NORAD 65869·PAYLOAD·🇺🇸 United States

打ち上げ Oct 3, 2025 から Vandenberg Space Force Base

Loading…

次のパス (今後24時間)

TLE

最新Source: CelesTrak SupGP

元期: Sep 14, 2026, 21:13 UTC

1 65869C 25223R   26257.88451389 -.00055551  00000+0 -16413-2 0  2572
2 65869  53.1574 131.9616 0001346  87.6506 160.9673 15.34417352    12

AllMySatでSTARLINK-35441をリアルタイム追跡

Download on the App Store